| time (UTC) | temp F | wind direction | speed MPH | gust MPH | rain 1hr in | rain 24hr in | rain mn in | humidity % | barometer mb |
| 20260504041511 | 40 | 126 | 0.0 | 0.0 | 0.00 | 0.00 | 0.00 | 70 | 1011.9 |
| 20260504040002 | 38 | 162 | 0.0 | 0.0 | 0.00 | 0.00 | 0.00 | 74 | 1011.9 |
| 20260504034501 | 38 | 162 | 0.0 | 0.0 | 0.00 | 0.00 | 0.00 | 73 | 1011.8 |
| 20260504033100 | 38 | 163 | 0.0 | 0.0 | 0.00 | 0.00 | 0.00 | 70 | 1011.7 |
| 20260504031559 | 40 | 163 | 0.0 | 0.0 | 0.00 | 0.00 | 0.00 | 68 | 1011.7 |
| 20260504030059 | 41 | 163 | 0.0 | 0.0 | 0.00 | 0.00 | 0.00 | 67 | 1011.7 |
| 20260504024603 | 42 | 163 | 0.0 | 0.0 | 0.00 | 0.00 | 0.00 | 64 | 1011.8 |
| 20260504023058 | 43 | 163 | 0.0 | 0.0 | 0.00 | 0.00 | 0.00 | 63 | 1011.9 |
| 20260504021557 | 43 | 180 | 0.0 | 0.0 | 0.00 | 0.00 | 0.00 | 61 | 1011.9 |
| 20260504020057 | 44 | 188 | 0.0 | 0.0 | 0.00 | 0.00 | 0.00 | 59 | 1011.7 |
| 20260504014556 | 45 | 188 | 0.0 | 0.0 | 0.00 | 0.00 | 0.00 | 56 | 1011.6 |
| 20260504013113 | 47 | 188 | 0.0 | 0.0 | 0.00 | 0.00 | 0.00 | 52 | 1011.5 |
| 20260504011556 | 48 | 188 | 0.0 | 0.0 | 0.00 | 0.00 | 0.00 | 48 | 1011.4 |
| 20260504010101 | 50 | 188 | 0.0 | 0.0 | 0.00 | 0.00 | 0.00 | 43 | 1011.4 |
| 20260504004607 | 52 | 188 | 0.0 | 1.0 | 0.00 | 0.00 | 0.00 | 40 | 1011.3 |
| 20260504003053 | 53 | 182 | 0.0 | 3.0 | 0.00 | 0.00 | 0.00 | 39 | 1011.2 |
| 20260504001552 | 54 | 188 | 2.0 | 9.0 | 0.00 | 0.00 | 0.00 | 37 | 1011.0 |
| 20260504000051 | 55 | 227 | 1.0 | 10.0 | 0.00 | 0.00 | 0.00 | 36 | 1011.0 |
| 20260503234550 | 56 | 255 | 2.0 | 7.0 | 0.00 | 0.00 | 0.00 | 35 | 1011.0 |
| 20260503233052 | 57 | 225 | 5.0 | 11.0 | 0.00 | 0.00 | 0.00 | 34 | 1010.9 |
| 20260503231549 | 57 | 217 | 4.0 | 14.0 | 0.00 | 0.00 | 0.00 | 33 | 1010.9 |
| 20260503230054 | 58 | 232 | 2.0 | 10.0 | 0.00 | 0.00 | 0.00 | 34 | 1010.9 |
| 20260503224547 | 58 | 241 | 5.0 | 13.0 | 0.00 | 0.00 | 0.00 | 32 | 1010.9 |
| 20260503223046 | 58 | 228 | 6.0 | 15.0 | 0.00 | 0.00 | 0.00 | 34 | 1010.8 |
| 20260503221545 | 58 | 250 | 6.0 | 12.0 | 0.00 | 0.00 | 0.00 | 31 | 1010.9 |
| 20260503220045 | 58 | 250 | 2.0 | 11.0 | 0.00 | 0.00 | 0.00 | 33 | 1010.9 |
| 20260503214547 | 58 | 267 | 4.0 | 14.0 | 0.00 | 0.00 | 0.00 | 33 | 1010.9 |
| 20260503213043 | 58 | 235 | 4.0 | 9.0 | 0.00 | 0.00 | 0.00 | 33 | 1010.7 |
| 20260503211543 | 58 | 238 | 3.0 | 10.0 | 0.00 | 0.00 | 0.00 | 32 | 1010.8 |
| 20260503210042 | 58 | 211 | 6.0 | 12.0 | 0.00 | 0.00 | 0.00 | 32 | 1010.9 |
| 20260503204540 | 59 | 222 | 6.0 | 14.0 | 0.00 | 0.00 | 0.00 | 30 | 1010.8 |
| 20260503203042 | 59 | 238 | 7.0 | 19.0 | 0.00 | 0.00 | 0.00 | 31 | 1011.0 |
| 20260503201533 | 58 | 206 | 11.0 | 21.0 | 0.00 | 0.00 | 0.00 | 31 | 1011.1 |
| 20260503200031 | 58 | 251 | 7.0 | 15.0 | 0.00 | 0.00 | 0.00 | 31 | 1011.3 |
| 20260503194533 | 58 | 245 | 9.0 | 16.0 | 0.00 | 0.00 | 0.00 | 33 | 1011.3 |
| 20260503193027 | 57 | 277 | 1.0 | 13.0 | 0.00 | 0.00 | 0.00 | 32 | 1011.7 |
| 20260503191534 | 57 | 242 | 7.0 | 15.0 | 0.00 | 0.00 | 0.00 | 30 | 1012.0 |
| 20260503190024 | 57 | 217 | 3.0 | 15.0 | 0.00 | 0.00 | 0.00 | 34 | 1012.0 |
| 20260503184522 | 57 | 229 | 8.0 | 16.0 | 0.00 | 0.00 | 0.00 | 32 | 1012.1 |
| 20260503183020 | 57 | 244 | 2.0 | 19.0 | 0.00 | 0.00 | 0.00 | 33 | 1012.1 |
| 20260503181519 | 57 | 228 | 3.0 | 10.0 | 0.00 | 0.00 | 0.00 | 35 | 1012.4 |
| 20260503180024 | 56 | 236 | 3.0 | 11.0 | 0.00 | 0.00 | 0.00 | 37 | 1012.4 |
| 20260503174513 | 56 | 275 | 3.0 | 18.0 | 0.00 | 0.00 | 0.00 | 32 | 1012.6 |
| 20260503173012 | 55 | 243 | 2.0 | 14.0 | 0.00 | 0.00 | 0.00 | 34 | 1012.7 |
| 20260503171510 | 56 | 267 | 2.0 | 15.0 | 0.00 | 0.00 | 0.00 | 34 | 1012.8 |
| 20260503160115 | 53 | 268 | 4.0 | 14.0 | 0.00 | 0.00 | 0.00 | 38 | 1013.6 |
| 20260503081544 | 39 | 219 | 2.0 | 6.0 | 0.00 | 0.00 | 0.00 | 62 | 1013.3 |
| 20260503071541 | 38 | 316 | 2.0 | 5.0 | 0.00 | 0.00 | 0.00 | 62 | 1013.1 |
| 20260503054534 | 40 | 259 | 2.0 | 6.0 | 0.00 | 0.03 | 0.00 | 59 | 1012.9 |
| 20260503053024 | 40 | 229 | 2.0 | 5.0 | 0.00 | 0.03 | 0.00 | 58 | 1013.0 |
| 20260503051516 | 41 | 234 | 0.0 | 4.0 | 0.00 | 0.03 | 0.00 | 55 | 1013.1 |
| 20260503050015 | 41 | 255 | 0.0 | 6.0 | 0.00 | 0.03 | 0.00 | 56 | 1013.2 |
| 20260503044515 | 41 | 259 | 1.0 | 5.0 | 0.00 | 0.10 | 0.00 | 55 | 1013.1 |
| 20260503043030 | 42 | 255 | 1.0 | 4.0 | 0.00 | 0.10 | 0.00 | 55 | 1013.1 |